• In Hungary
  • List of Countries
  • For 7 days
  • Water Temperature
  • Satellite Maps
  • Weather Map
  • News
  • Weather Widgets
  • user-avatar
    Login

    Hourly Weather Centralnyy

    Today, 23 September, Sunday

    Time Temperature Precipitation Wind Pressure Humidity
    00:00 +17°C° 0 mm 4 mps 750 mmHg 71%
    01:00 +17°C° 0 mm 4 mps 750 mmHg 72%
    02:00 +17°C° 0 mm 4 mps 750 mmHg 72%
    03:00 +17°C° 0 mm 4 mps 749 mmHg 73%
    04:00 +15°C° 0 mm 5 mps 749 mmHg 73%
    05:00 +15°C° 0 mm 5 mps 748 mmHg 73%
    06:00 +15°C° 0 mm 5 mps 748 mmHg 73%
    07:00 +16°C° 0 mm 6 mps 747 mmHg 69%
    08:00 +17°C° 0 mm 7 mps 747 mmHg 65%
    09:00 +18°C° 0 mm 7 mps 746 mmHg 61%
    10:00 +21°C° 0 mm 7 mps 746 mmHg 57%
    11:00 +22°C° 0 mm 8 mps 746 mmHg 53%
    12:00 +23°C° 0 mm 8 mps 746 mmHg 49%
    13:00 +22°C° 0.1 mm 7 mps 745 mmHg 53%
    14:00 +21°C° 0.1 mm 7 mps 745 mmHg 57%
    15:00 +21°C° 0.1 mm 6 mps 745 mmHg 60%
    16:00 +17°C° 0.5 mm 6 mps 745 mmHg 69%
    17:00 +14°C° 0.5 mm 5 mps 746 mmHg 77%
    18:00 +10°C° 0.5 mm 5 mps 746 mmHg 86%
    19:00 +11°C° 0.9 mm 4 mps 746 mmHg 87%
    20:00 +11°C° 0.9 mm 4 mps 746 mmHg 87%
    21:00 +10°C° 0.9 mm 4 mps 746 mmHg 88%
    22:00 +10°C° 1 mm 3 mps 746 mmHg 89%
    23:00 +10°C° 1 mm 3 mps 747 mmHg 89%

    Tomorrow, 24 September, Monday

    Time Temperature Precipitation Wind Pressure Humidity
    00:00 +10°C° 1 mm 3 mps 747 mmHg 90%
    01:00 +9°C° 0 mm 3 mps 747 mmHg 91%
    02:00 +9°C° 0 mm 3 mps 747 mmHg 92%
    03:00 +9°C° 0 mm 3 mps 748 mmHg 92%
    04:00 +8°C° 0 mm 3 mps 748 mmHg 93%
    05:00 +8°C° 0 mm 3 mps 748 mmHg 93%
    06:00 +8°C° 0 mm 2 mps 748 mmHg 94%
    07:00 +9°C° 0 mm 2 mps 748 mmHg 89%
    08:00 +10°C° 0 mm 3 mps 748 mmHg 83%
    09:00 +12°C° 0 mm 3 mps 748 mmHg 78%
    10:00 +13°C° 0 mm 3 mps 748 mmHg 71%
    11:00 +14°C° 0 mm 3 mps 748 mmHg 63%
    12:00 +15°C° 0 mm 4 mps 748 mmHg 55%
    13:00 +17°C° 0 mm 4 mps 748 mmHg 55%
    14:00 +17°C° 0 mm 4 mps 748 mmHg 54%
    15:00 +17°C° 0 mm 4 mps 747 mmHg 53%
    16:00 +15°C° 0.1 mm 4 mps 747 mmHg 56%
    17:00 +14°C° 0.1 mm 4 mps 746 mmHg 60%
    18:00 +14°C° 0.1 mm 3 mps 746 mmHg 63%
    19:00 +13°C° 0.3 mm 5 mps 745 mmHg 66%
    20:00 +13°C° 0.3 mm 6 mps 744 mmHg 68%
    21:00 +12°C° 0.3 mm 7 mps 744 mmHg 70%
    22:00 +11°C° 0.9 mm 8 mps 743 mmHg 73%
    23:00 +11°C° 0.9 mm 9 mps 742 mmHg 75%

    Day after tomorrow, 25 September, Tuesday

    Time Temperature Precipitation Wind Pressure Humidity
    00:00 +11°C° 0.9 mm 10 mps 741 mmHg 77%
    01:00 +11°C° 0.5 mm 9 mps 740 mmHg 79%
    02:00 +10°C° 0.5 mm 9 mps 740 mmHg 80%
    03:00 +10°C° 0.5 mm 9 mps 739 mmHg 82%
    04:00 +10°C° 0.3 mm 8 mps 739 mmHg 82%
    05:00 +10°C° 0.3 mm 7 mps 739 mmHg 83%
    06:00 +10°C° 0.3 mm 6 mps 739 mmHg 83%
    07:00 +10°C° 0 mm 6 mps 739 mmHg 82%
    08:00 +9°C° 0 mm 7 mps 739 mmHg 80%
    09:00 +9°C° 0 mm 7 mps 740 mmHg 78%
    10:00 +10°C° 0.1 mm 7 mps 740 mmHg 76%
    11:00 +10°C° 0.1 mm 7 mps 741 mmHg 73%
    12:00 +10°C° 0.1 mm 7 mps 741 mmHg 70%
    13:00 +10°C° 0.1 mm 7 mps 741 mmHg 68%
    14:00 +11°C° 0.1 mm 7 mps 742 mmHg 66%
    15:00 +11°C° 0.1 mm 7 mps 742 mmHg 63%
    16:00 +10°C° 0 mm 7 mps 743 mmHg 64%
    17:00 +10°C° 0 mm 6 mps 743 mmHg 66%
    18:00 +9°C° 0 mm 6 mps 744 mmHg 67%
    19:00 +8°C° 0 mm 6 mps 744 mmHg 69%
    20:00 +8°C° 0 mm 6 mps 744 mmHg 70%
    21:00 +7°C° 0 mm 6 mps 745 mmHg 72%
    22:00 +7°C° 0 mm 6 mps 745 mmHg 73%
    23:00 +7°C° 0 mm 6 mps 746 mmHg 74%

    26 September, Wednesday

    Time Temperature Precipitation Wind Pressure Humidity
    00:00 +7°C° 0 mm 6 mps 746 mmHg 75%
    01:00 +7°C° 0 mm 6 mps 746 mmHg 76%
    02:00 +7°C° 0 mm 5 mps 747 mmHg 77%
    03:00 +6°C° 0 mm 5 mps 747 mmHg 78%
    04:00 +6°C° 0.2 mm 5 mps 748 mmHg 79%
    05:00 +6°C° 0.2 mm 5 mps 749 mmHg 80%
    06:00 +6°C° 0.2 mm 5 mps 749 mmHg 82%
    07:00 +6°C° 0.2 mm 5 mps 750 mmHg 81%
    08:00 +6°C° 0.2 mm 5 mps 751 mmHg 79%
    09:00 +6°C° 0.2 mm 5 mps 751 mmHg 78%
    10:00 +6°C° 0.1 mm 5 mps 752 mmHg 75%
    11:00 +6°C° 0.1 mm 5 mps 753 mmHg 73%
    12:00 +7°C° 0.1 mm 5 mps 753 mmHg 70%
    13:00 +7°C° 0 mm 4 mps 754 mmHg 67%
    14:00 +8°C° 0 mm 4 mps 754 mmHg 65%
    15:00 +8°C° 0 mm 4 mps 754 mmHg 62%
    16:00 +8°C° 0 mm 3 mps 755 mmHg 63%
    17:00 +8°C° 0 mm 3 mps 755 mmHg 64%
    18:00 +7°C° 0 mm 2 mps 755 mmHg 64%
    19:00 +6°C° 0 mm 2 mps 755 mmHg 65%
    20:00 +6°C° 0 mm 2 mps 756 mmHg 66%
    21:00 +5°C° 0 mm 2 mps 756 mmHg 67%
    22:00 +5°C° 0 mm 2 mps 756 mmHg 70%
    23:00 +5°C° 0 mm 2 mps 756 mmHg 72%

    27 September, Thursday

    Time Temperature Precipitation Wind Pressure Humidity
    00:00 +3°C° 0 mm 3 mps 756 mmHg 74%
    01:00 +3°C° 0 mm 3 mps 755 mmHg 76%
    02:00 +3°C° 0 mm 3 mps 755 mmHg 78%
    03:00 +3°C° 0 mm 3 mps 755 mmHg 80%
    04:00 +3°C° 0 mm 4 mps 754 mmHg 78%
    05:00 +2°C° 0 mm 5 mps 753 mmHg 77%
    06:00 +3°C° 0 mm 5 mps 753 mmHg 75%
    07:00 +4°C° 0 mm 6 mps 752 mmHg 69%
    08:00 +5°C° 0 mm 7 mps 752 mmHg 63%
    09:00 +6°C° 0 mm 8 mps 751 mmHg 57%
    10:00 +6°C° 0.2 mm 9 mps 750 mmHg 57%
    11:00 +6°C° 0.2 mm 9 mps 750 mmHg 57%
    12:00 +7°C° 0.2 mm 9 mps 749 mmHg 58%
    13:00 +6°C° 1.1 mm 9 mps 748 mmHg 64%
    14:00 +6°C° 1.1 mm 9 mps 747 mmHg 69%
    15:00 +5°C° 1.1 mm 9 mps 747 mmHg 75%
    16:00 +5°C° 1 mm 9 mps 746 mmHg 78%
    17:00 +5°C° 1 mm 9 mps 746 mmHg 80%
    18:00 +5°C° 1 mm 9 mps 745 mmHg 82%
    19:00 +6°C° 0.2 mm 8 mps 745 mmHg 83%
    20:00 +6°C° 0.2 mm 8 mps 745 mmHg 85%
    21:00 +6°C° 0.2 mm 7 mps 745 mmHg 86%
    22:00 +6°C° 0.2 mm 7 mps 745 mmHg 85%
    23:00 +7°C° 0.2 mm 6 mps 745 mmHg 85%

    28 September, Friday

    Time Temperature Precipitation Wind Pressure Humidity
    00:00 +7°C° 0.2 mm 6 mps 745 mmHg 84%
    01:00 +7°C° 0 mm 5 mps 745 mmHg 85%
    02:00 +6°C° 0 mm 5 mps 746 mmHg 87%
    03:00 +6°C° 0 mm 5 mps 746 mmHg 88%
    04:00 +5°C° 0 mm 5 mps 746 mmHg 88%
    05:00 +5°C° 0 mm 5 mps 746 mmHg 89%
    06:00 +5°C° 0 mm 5 mps 746 mmHg 90%
    07:00 +6°C° 0 mm 5 mps 746 mmHg 85%
    08:00 +7°C° 0 mm 5 mps 747 mmHg 80%
    09:00 +8°C° 0 mm 6 mps 747 mmHg 75%
    10:00 +9°C° 0 mm 6 mps 747 mmHg 68%
    11:00 +10°C° 0 mm 6 mps 747 mmHg 61%
    12:00 +12°C° 0 mm 7 mps 747 mmHg 55%
    13:00 +11°C° 0 mm 6 mps 746 mmHg 57%
    14:00 +11°C° 0 mm 6 mps 746 mmHg 60%
    15:00 +11°C° 0 mm 6 mps 746 mmHg 62%
    16:00 +10°C° 0.9 mm 5 mps 745 mmHg 71%
    17:00 +10°C° 0.9 mm 4 mps 745 mmHg 80%
    18:00 +9°C° 0.9 mm 3 mps 745 mmHg 89%
    19:00 +7°C° 0.4 mm 4 mps 745 mmHg 89%
    20:00 +7°C° 0.4 mm 4 mps 745 mmHg 90%
    21:00 +7°C° 0.4 mm 5 mps 746 mmHg 90%
    22:00 +6°C° 0 mm 4 mps 746 mmHg 90%
    23:00 +6°C° 0 mm 4 mps 747 mmHg 90%
    Show more